Year,Month,Day,Hour,Minute,Value (Times are PST for temperature in C)
2008,07,19,00,00,14.10
2008,07,19,00,01,14.10
2008,07,19,00,02,14.10
2008,07,19,00,03,14.10
2008,07,19,00,04,14.10
2008,07,19,00,05,14.10
2008,07,19,00,06,14.00
2008,07,19,00,07,14.00
2008,07,19,00,08,14.00
2008,07,19,00,09,13.90
2008,07,19,00,10,13.90
2008,07,19,00,11,13.80
2008,07,19,00,12,13.70
2008,07,19,00,13,13.70
2008,07,19,00,14,13.70
2008,07,19,00,15,13.60
2008,07,19,00,16,13.60
2008,07,19,18,02,18.30
2008,07,19,18,03,18.40
2008,07,19,18,04,18.40
2008,07,19,18,05,18.40
2008,07,19,18,06,18.40
2008,07,19,18,07,18.30
2008,07,19,18,08,18.30
2008,07,19,18,09,18.20
2008,07,19,18,10,18.20
2008,07,19,18,11,18.20
2008,07,19,18,12,18.20
2008,07,19,18,13,18.30
2008,07,19,18,14,18.20
2008,07,19,18,15,18.20
2008,07,19,18,16,18.20
2008,07,19,18,17,18.20
2008,07,19,18,18,18.20
2008,07,19,18,19,18.20
2008,07,19,18,20,18.20
2008,07,19,18,21,18.20
2008,07,19,18,22,18.20
2008,07,19,18,23,18.20
2008,07,19,18,24,18.20
2008,07,19,18,25,18.20
2008,07,19,18,26,18.20
2008,07,19,18,27,18.20
2008,07,19,18,28,18.20
2008,07,19,18,29,18.20
2008,07,19,18,30,18.20
2008,07,19,18,31,18.20
2008,07,19,18,32,18.20
2008,07,19,18,33,18.30
2008,07,19,18,34,18.30
2008,07,19,18,35,18.30
2008,07,19,18,36,18.20
2008,07,19,18,37,18.20
2008,07,19,18,38,18.20
2008,07,19,18,39,18.20
2008,07,19,18,40,18.20
2008,07,19,18,41,18.10
2008,07,19,18,42,18.10
2008,07,19,18,43,17.90
2008,07,19,18,44,17.90
2008,07,19,18,45,17.90
2008,07,19,18,46,17.90
2008,07,19,18,47,17.90
2008,07,19,18,48,17.90
2008,07,19,18,49,17.90
2008,07,19,18,50,17.90
2008,07,19,18,51,18.00
2008,07,19,18,52,18.10
2008,07,19,18,53,18.00
2008,07,19,18,54,17.90
2008,07,19,18,55,17.90
2008,07,19,18,56,17.80
2008,07,19,18,57,17.70
2008,07,19,18,58,17.60
2008,07,19,18,59,17.50
2008,07,19,19,00,17.50
2008,07,19,19,01,17.40
2008,07,19,19,02,17.40
2008,07,19,19,03,17.50
2008,07,19,19,04,17.50
2008,07,19,19,05,17.60
2008,07,19,19,06,17.60
2008,07,19,19,07,17.60
2008,07,19,19,08,17.60
2008,07,19,19,09,17.60
2008,07,19,19,10,17.60
2008,07,19,19,11,17.60
2008,07,19,19,12,17.50
2008,07,19,19,13,17.50
2008,07,19,19,14,17.50
2008,07,19,19,15,17.50
2008,07,19,19,16,17.50
2008,07,19,19,17,17.40
2008,07,19,19,18,17.40
2008,07,19,19,19,17.30
2008,07,19,19,20,17.30
2008,07,19,19,21,17.30
2008,07,19,19,22,17.30
2008,07,19,19,23,17.30
2008,07,19,19,24,17.30
2008,07,19,19,25,17.20
2008,07,19,19,26,17.20
2008,07,19,19,27,17.20
2008,07,19,19,28,17.20
2008,07,19,19,29,17.20
2008,07,19,19,30,17.10
2008,07,19,19,31,17.10
2008,07,19,19,32,17.10
2008,07,19,19,33,17.10
2008,07,19,19,34,17.10
2008,07,19,19,35,17.10
2008,07,19,19,36,17.20
2008,07,19,19,37,17.20
2008,07,19,19,38,17.20
2008,07,19,19,39,17.20
2008,07,19,19,40,17.10
2008,07,19,19,41,17.10
2008,07,19,19,42,17.20
2008,07,19,19,43,17.20
2008,07,19,19,44,17.20
2008,07,19,19,45,17.20
2008,07,19,19,46,17.20
2008,07,19,19,47,17.20
2008,07,19,19,48,17.20
2008,07,19,19,49,17.20
2008,07,19,19,50,17.20
2008,07,19,19,51,17.20
2008,07,19,19,52,17.20
2008,07,19,19,53,17.20
2008,07,19,19,54,17.20
2008,07,19,19,55,17.20
2008,07,19,19,56,17.20
2008,07,19,19,57,17.10
2008,07,19,19,58,17.10
2008,07,19,19,59,17.00
2008,07,19,20,00,17.00
2008,07,19,20,01,17.00
2008,07,19,20,02,16.90
2008,07,19,20,03,16.90
2008,07,19,20,04,16.90
2008,07,19,20,05,16.80
2008,07,19,20,06,16.70
2008,07,19,20,07,16.70
2008,07,19,20,08,16.50
2008,07,19,20,09,16.40
2008,07,19,20,10,16.40
2008,07,19,20,11,16.30
2008,07,19,20,12,16.30
2008,07,19,20,13,16.30
2008,07,19,20,14,16.30
2008,07,19,20,15,16.30
2008,07,19,20,16,16.20
2008,07,19,20,17,16.20
2008,07,19,20,18,16.20
2008,07,19,20,19,16.20
2008,07,19,20,20,16.10
2008,07,19,20,21,16.10
2008,07,19,20,22,16.10
2008,07,19,20,23,16.10
2008,07,19,20,24,16.00
2008,07,19,20,25,15.90
2008,07,19,20,26,15.80
2008,07,19,20,27,15.80
2008,07,19,20,28,15.70
2008,07,19,20,29,15.70
2008,07,19,20,30,15.60
2008,07,19,20,31,15.60
2008,07,19,20,32,15.60
2008,07,19,20,33,15.50
2008,07,19,20,34,15.50
2008,07,19,20,35,15.50
2008,07,19,20,36,15.40
2008,07,19,20,37,15.30
2008,07,19,20,38,15.30
2008,07,19,20,39,15.20
2008,07,19,20,40,15.10
2008,07,19,20,41,15.10
2008,07,19,20,42,15.00
2008,07,19,20,43,15.00
2008,07,19,20,44,14.90
2008,07,19,20,45,14.90
2008,07,19,20,46,14.90
2008,07,19,20,47,14.80
2008,07,19,20,48,14.80
2008,07,19,20,49,14.80
2008,07,19,20,50,14.80
2008,07,19,20,51,14.80
2008,07,19,20,52,14.90
2008,07,19,20,53,14.90
2008,07,19,20,54,14.90
2008,07,19,20,55,14.80
2008,07,19,20,56,14.80
2008,07,19,20,57,14.80
2008,07,19,20,58,14.70
2008,07,19,20,59,14.70
2008,07,19,21,00,14.70
2008,07,19,21,01,14.70
2008,07,19,21,02,14.60
2008,07,19,21,03,14.60
2008,07,19,21,04,14.60
2008,07,19,21,05,14.60
2008,07,19,21,06,14.50
2008,07,19,21,07,14.50
2008,07,19,21,08,14.40
2008,07,19,21,09,14.40
2008,07,19,21,10,14.40
2008,07,19,21,11,14.30
2008,07,19,21,12,14.30
2008,07,19,21,13,14.20
2008,07,19,21,14,14.20
2008,07,19,21,15,14.20
2008,07,19,21,16,14.20
2008,07,19,21,17,14.20
2008,07,19,21,18,14.20
2008,07,19,21,19,14.20
2008,07,19,21,20,14.10
2008,07,19,21,21,14.10
2008,07,19,21,22,14.10
2008,07,19,21,23,14.10
2008,07,19,21,24,14.00
2008,07,19,21,25,14.00
2008,07,19,21,26,14.00
2008,07,19,21,27,14.00
2008,07,19,21,28,14.00
2008,07,19,21,29,13.90
2008,07,19,21,30,13.90
2008,07,19,21,31,13.90
2008,07,19,21,32,13.90
2008,07,19,21,33,13.90
2008,07,19,21,34,13.90
2008,07,19,21,35,13.90
2008,07,19,21,36,14.00
2008,07,19,21,37,13.90
2008,07,19,21,38,13.90
2008,07,19,21,39,13.90
2008,07,19,21,40,13.90
2008,07,19,21,41,14.00
2008,07,19,21,42,14.00
2008,07,19,21,43,14.00
2008,07,19,21,44,14.00
2008,07,19,21,45,14.00
2008,07,19,21,46,14.00
2008,07,19,21,47,14.00
2008,07,19,21,48,14.00
2008,07,19,21,49,14.00
2008,07,19,21,50,14.10
2008,07,19,21,51,14.10
2008,07,19,21,52,14.10
2008,07,19,21,53,14.10
2008,07,19,21,54,14.10
2008,07,19,21,55,14.10
2008,07,19,21,56,14.10
2008,07,19,21,57,14.00
2008,07,19,21,58,14.00
2008,07,19,21,59,13.90
2008,07,19,22,00,13.90
2008,07,19,22,01,13.80
2008,07,19,22,02,13.80
2008,07,19,22,03,13.70
2008,07,19,22,04,13.70
2008,07,19,22,05,13.70
2008,07,19,22,06,13.70
2008,07,19,22,07,13.60
2008,07,19,22,08,13.60
2008,07,19,22,09,13.50
2008,07,19,22,10,13.50
2008,07,19,22,11,13.50
2008,07,19,22,12,13.40
2008,07,19,22,13,13.30
2008,07,19,22,14,13.30
2008,07,19,22,15,13.20
2008,07,19,22,16,13.20
2008,07,19,22,17,13.20
2008,07,19,22,18,13.10
2008,07,19,22,19,13.10
2008,07,19,22,20,13.10
2008,07,19,22,21,13.10
2008,07,19,22,22,13.10
2008,07,19,22,23,13.10
2008,07,19,22,24,13.10
2008,07,19,22,25,13.10
2008,07,19,22,26,13.10
2008,07,19,22,27,13.10
2008,07,19,22,28,13.00
2008,07,19,22,29,13.00
2008,07,19,22,30,13.00
2008,07,19,22,31,13.00
2008,07,19,22,32,13.00
2008,07,19,22,33,13.00
2008,07,19,22,34,12.90
2008,07,19,22,35,12.90
2008,07,19,22,36,12.90
2008,07,19,22,37,12.90
2008,07,19,22,38,12.90
2008,07,19,22,39,12.90
2008,07,19,22,40,12.90
2008,07,19,22,41,12.80
2008,07,19,22,42,12.80
2008,07,19,22,43,12.80
2008,07,19,22,44,12.80
2008,07,19,22,45,12.80
2008,07,19,22,46,12.80
2008,07,19,22,47,12.80
2008,07,19,22,48,12.80
2008,07,19,22,49,12.80
2008,07,19,22,50,12.80
2008,07,19,22,51,12.70
2008,07,19,22,52,12.70
2008,07,19,22,53,12.70
2008,07,19,22,54,12.70
2008,07,19,22,55,12.70
2008,07,19,22,56,12.60
2008,07,19,22,57,12.60
2008,07,19,22,58,12.60
2008,07,19,22,59,12.60
2008,07,19,23,00,12.60
2008,07,19,23,01,12.50
2008,07,19,23,02,12.50
2008,07,19,23,03,12.50
2008,07,19,23,04,12.50
2008,07,19,23,05,12.50
2008,07,19,23,06,12.50
2008,07,19,23,07,12.50
2008,07,19,23,08,12.40
2008,07,19,23,09,12.40
2008,07,19,23,10,12.40
2008,07,19,23,11,12.40
2008,07,19,23,12,12.40
2008,07,19,23,13,12.40
2008,07,19,23,14,12.40
2008,07,19,23,15,12.40
2008,07,19,23,16,12.40
2008,07,19,23,17,12.40
2008,07,19,23,18,12.40
2008,07,19,23,19,12.40
2008,07,19,23,20,12.40
2008,07,19,23,21,12.40
2008,07,19,23,22,12.30
2008,07,19,23,23,12.30
2008,07,19,23,24,12.40
2008,07,19,23,25,12.40
2008,07,19,23,26,12.40
2008,07,19,23,27,12.40
2008,07,19,23,28,12.30
2008,07,19,23,29,12.30
2008,07,19,23,30,12.30
2008,07,19,23,31,12.30
2008,07,19,23,32,12.30
2008,07,19,23,33,12.30
2008,07,19,23,34,12.30
2008,07,19,23,35,12.30
2008,07,19,23,36,12.30
2008,07,19,23,37,12.30
2008,07,19,23,38,12.30
2008,07,19,23,39,12.30
2008,07,19,23,40,12.30
2008,07,19,23,41,12.30
2008,07,19,23,42,12.30
2008,07,19,23,43,12.30
2008,07,19,23,44,12.30
2008,07,19,23,45,12.30
2008,07,19,23,46,12.30
2008,07,19,23,47,12.30
2008,07,19,23,48,12.40
2008,07,19,23,49,12.40
2008,07,19,23,50,12.50
2008,07,19,23,51,12.50
2008,07,19,23,52,12.50
2008,07,19,23,53,12.60
2008,07,19,23,54,12.60
2008,07,19,23,55,12.60
2008,07,19,23,56,12.70
2008,07,19,23,57,12.70
2008,07,19,23,58,12.70
2008,07,19,23,59,12.70
